Time,TemperatureF,DewpointF,PressureIn,WindDirection,WindDirectionDegrees,WindSpeedMPH,WindSpeedGustMPH,Humidity,HourlyPrecipIn,Conditions,Clouds,dailyrainin,SoftwareType,DateUTC
2013-08-12 13:35:00,90.6,76.9,29.68,SE,132,0.0,5.8,64,0.00,,,0.00,VWS V14.01,2013-08-12 17:35:00,
2013-08-12 13:40:00,91.8,77.0,29.68,ENE,59,5.4,5.8,62,0.00,,,0.00,VWS V14.01,2013-08-12 17:40:00,
2013-08-12 13:45:00,92.2,77.4,29.68,ENE,66,5.4,6.3,62,0.00,,,0.00,VWS V14.01,2013-08-12 17:45:00,
2013-08-12 13:50:00,91.8,79.2,29.68,SSE,151,3.1,6.3,67,0.00,,,0.00,VWS V14.01,2013-08-12 17:50:00,
2013-08-12 13:55:00,91.8,79.2,29.68,NE,37,2.2,5.4,67,0.00,,,0.00,VWS V14.01,2013-08-12 17:55:00,
2013-08-12 14:00:00,91.8,78.1,29.68,ENE,74,2.7,5.8,64,0.00,,,0.00,VWS V14.01,2013-08-12 18:00:00,
2013-08-12 14:05:00,91.5,76.7,29.68,East,94,0.0,8.3,62,0.00,,,0.00,VWS V14.01,2013-08-12 18:05:00,
2013-08-12 14:10:00,91.5,76.7,29.68,ENE,78,5.8,8.3,62,0.00,,,0.00,VWS V14.01,2013-08-12 18:10:00,
2013-08-12 14:20:00,91.3,76.5,29.68,ENE,65,3.1,5.8,62,0.00,,,0.00,VWS V14.01,2013-08-12 18:20:00,
2013-08-12 14:21:00,91.5,76.7,29.68,ENE,65,2.7,3.1,62,0.00,,,0.00,VWS V14.01,2013-08-12 18:21:00,
2013-08-12 14:30:00,93.3,78.4,29.68,ESE,123,2.2,4.9,62,0.00,,,0.00,VWS V14.01,2013-08-12 18:30:00,
2013-08-12 14:31:00,93.5,76.2,29.68,ENE,57,3.1,5.4,58,0.00,,,0.00,VWS V14.01,2013-08-12 18:31:00,
2013-08-12 14:36:00,93.1,78.2,29.68,SSE,154,0.0,6.3,62,0.00,,,0.00,VWS V14.01,2013-08-12 18:36:00,
2013-08-12 14:41:00,93.3,78.4,29.68,East,81,3.6,4.0,62,0.00,,,0.00,VWS V14.01,2013-08-12 18:41:00,
2013-08-12 14:46:00,93.8,77.7,29.68,South,189,0.0,4.0,60,0.00,,,0.00,VWS V14.01,2013-08-12 18:46:00,
2013-08-12 14:50:00,94.2,75.7,29.68,ESE,119,2.7,8.3,55,0.00,,,0.00,VWS V14.01,2013-08-12 18:50:00,
2013-08-12 14:51:00,94.2,71.7,29.68,SSE,159,2.2,2.7,48,0.00,,,0.00,VWS V14.01,2013-08-12 18:51:00,
2013-08-12 14:56:00,93.8,74.1,29.68,South,182,3.6,3.6,53,0.00,,,0.00,VWS V14.01,2013-08-12 18:56:00,
2013-08-12 15:00:00,93.6,75.2,29.68,ENE,78,0.0,3.6,55,0.00,,,0.00,VWS V14.01,2013-08-12 19:00:00,
2013-08-12 15:06:00,92.4,77.5,29.68,ENE,77,2.7,5.8,62,0.00,,,0.00,VWS V14.01,2013-08-12 19:06:00,
2013-08-12 15:10:00,91.3,77.6,29.68,East,85,2.7,5.8,64,0.00,,,0.00,VWS V14.01,2013-08-12 19:10:00,
2013-08-12 15:11:00,90.8,77.1,29.68,East,85,0.0,2.7,64,0.00,,,0.00,VWS V14.01,2013-08-12 19:11:00,
2013-08-12 15:16:00,89.7,79.2,29.68,East,91,3.6,7.6,71,0.00,,,0.00,VWS V14.01,2013-08-12 19:16:00,
2013-08-12 15:20:00,88.8,80.2,29.68,East,90,0.0,7.6,76,0.00,,,0.00,VWS V14.01,2013-08-12 19:20:00,
2013-08-12 15:21:00,88.6,81.8,29.68,East,90,2.7,3.1,80,0.00,,,0.00,VWS V14.01,2013-08-12 19:21:00,
2013-08-12 15:26:00,87.7,81.0,29.68,ENE,70,5.8,5.8,80,0.00,,,0.00,VWS V14.01,2013-08-12 19:26:00,
2013-08-12 15:30:00,86.8,82.6,29.68,ENE,60,4.0,6.7,87,0.00,,,0.00,VWS V14.01,2013-08-12 19:30:00,
2013-08-12 15:31:00,86.6,84.8,29.68,NE,54,4.9,6.3,94,0.00,,,0.00,VWS V14.01,2013-08-12 19:31:00,
2013-08-12 15:36:00,85.4,84.3,29.68,ENE,67,4.5,6.3,97,0.00,,,0.00,VWS V14.01,2013-08-12 19:36:00,
2013-08-12 15:41:00,83.9,83.9,29.68,ENE,64,0.0,2.2,100,0.00,,,0.00,VWS V14.01,2013-08-12 19:41:00,
2013-08-12 15:46:00,83.9,83.9,29.68,ENE,64,0.0,2.2,100,0.00,,,0.00,VWS V14.01,2013-08-12 19:46:00,
2013-08-12 15:51:00,84.3,84.3,29.68,ENE,64,0.0,0.0,100,0.00,,,0.00,VWS V14.01,2013-08-12 19:51:00,
2013-08-12 15:56:00,84.1,84.1,29.68,ENE,63,3.6,4.0,100,0.00,,,0.00,VWS V14.01,2013-08-12 19:56:00,
2013-08-12 16:00:00,84.1,84.1,29.68,ENE,63,2.7,4.0,100,0.00,,,0.00,VWS V14.01,2013-08-12 20:00:00,
2013-08-12 16:01:00,84.1,84.1,29.68,East,92,3.6,3.6,100,0.00,,,0.00,VWS V14.01,2013-08-12 20:01:00,
2013-08-12 16:06:00,83.7,83.8,29.68,NNE,29,3.6,4.5,100,0.00,,,0.00,VWS V14.01,2013-08-12 20:06:00,
2013-08-12 16:11:00,82.8,82.8,29.68,ENE,70,4.0,5.4,100,0.00,,,0.00,VWS V14.01,2013-08-12 20:11:00,
2013-08-12 16:16:00,82.1,82.1,29.68,ENE,64,3.1,5.8,100,0.00,,,0.00,VWS V14.01,2013-08-12 20:16:00,
2013-08-12 16:21:00,81.6,81.6,29.68,NNE,30,5.8,5.8,100,0.00,,,0.00,VWS V14.01,2013-08-12 20:21:00,
2013-08-12 16:26:00,80.7,80.7,29.68,NNE,21,3.1,5.8,100,0.00,,,0.00,VWS V14.01,2013-08-12 20:26:00,
2013-08-12 16:30:00,80.3,80.3,29.68,NE,53,2.7,5.8,100,0.00,,,0.00,VWS V14.01,2013-08-12 20:30:00,
2013-08-12 16:31:00,80.1,80.2,29.68,NE,42,3.1,4.0,100,0.00,,,0.00,VWS V14.01,2013-08-12 20:31:00,
2013-08-12 16:36:00,80.3,80.3,29.68,ENE,67,0.0,4.0,100,0.00,,,0.00,VWS V14.01,2013-08-12 20:36:00,
2013-08-12 16:40:00,80.5,80.5,29.68,ENE,68,3.1,4.0,100,0.00,,,0.00,VWS V14.01,2013-08-12 20:40:00,
2013-08-12 16:41:00,80.7,80.7,29.68,ENE,74,3.6,3.6,100,0.00,,,0.00,VWS V14.01,2013-08-12 20:41:00,
2013-08-12 16:46:00,81.0,81.1,29.68,ENE,65,0.0,5.4,100,0.00,,,0.00,VWS V14.01,2013-08-12 20:46:00,
2013-08-12 16:50:00,81.4,81.4,29.65,ENE,65,0.0,5.4,100,0.00,,,0.00,VWS V14.01,2013-08-12 20:50:00,
2013-08-12 16:51:00,81.8,81.8,29.65,SSW,201,2.7,2.7,100,0.00,,,0.00,VWS V14.01,2013-08-12 20:51:00,
2013-08-12 16:56:00,82.5,82.5,29.65,East,90,2.7,3.1,100,0.00,,,0.00,VWS V14.01,2013-08-12 20:56:00,
2013-08-12 17:00:00,82.7,82.7,29.65,East,90,2.2,3.6,100,0.00,,,0.00,VWS V14.01,2013-08-12 21:00:00,
2013-08-12 17:01:00,82.7,82.7,29.65,East,90,2.7,3.1,100,0.00,,,0.00,VWS V14.01,2013-08-12 21:01:00,
2013-08-12 17:06:00,82.8,82.8,29.65,East,90,3.1,4.0,100,0.00,,,0.00,VWS V14.01,2013-08-12 21:06:00,
2013-08-12 17:10:00,83.0,83.0,29.65,East,90,2.7,4.0,100,0.00,,,0.00,VWS V14.01,2013-08-12 21:10:00,
2013-08-12 17:11:00,83.0,83.0,29.65,East,90,0.0,2.7,100,0.00,,,0.00,VWS V14.01,2013-08-12 21:11:00,
2013-08-12 17:16:00,83.2,83.2,29.65,East,90,3.1,3.6,100,0.00,,,0.00,VWS V14.01,2013-08-12 21:16:00,
2013-08-12 17:20:00,83.2,83.2,29.65,East,90,0.0,3.6,100,0.00,,,0.00,VWS V14.01,2013-08-12 21:20:00,
2013-08-12 17:21:00,83.2,83.2,29.65,East,90,0.0,0.0,100,0.00,,,0.00,VWS V14.01,2013-08-12 21:21:00,
2013-08-12 17:26:00,83.2,83.2,29.65,East,90,0.0,0.0,100,0.00,,,0.00,VWS V14.01,2013-08-12 21:26:00,
2013-08-12 17:30:00,83.0,83.0,29.65,East,90,0.0,2.7,100,0.00,,,0.00,VWS V14.01,2013-08-12 21:30:00,
2013-08-12 17:31:00,83.0,83.0,29.65,East,90,0.0,0.0,100,0.00,,,0.00,VWS V14.01,2013-08-12 21:31:00,
2013-08-12 17:36:00,83.0,83.0,29.65,East,90,2.7,3.6,100,0.00,,,0.00,VWS V14.01,2013-08-12 21:36:00,
2013-08-12 17:40:00,83.0,83.0,29.65,East,90,0.0,3.6,100,0.00,,,0.00,VWS V14.01,2013-08-12 21:40:00,
2013-08-12 17:41:00,83.0,83.0,29.65,East,90,0.0,0.0,100,0.00,,,0.00,VWS V14.01,2013-08-12 21:41:00,
2013-08-12 17:46:00,83.2,83.2,29.65,East,90,0.0,2.7,100,0.00,,,0.00,VWS V14.01,2013-08-12 21:46:00,
2013-08-12 17:51:00,83.2,83.2,29.68,East,90,2.7,3.1,100,0.00,,,0.00,VWS V14.01,2013-08-12 21:51:00,
2013-08-12 17:56:00,83.0,83.0,29.68,East,90,0.0,3.6,100,0.00,,,0.00,VWS V14.01,2013-08-12 21:56:00,
2013-08-12 18:00:00,83.0,83.0,29.68,East,90,0.0,3.6,100,0.00,,,0.00,VWS V14.01,2013-08-12 22:00:00,
2013-08-12 18:01:00,83.0,83.0,29.68,East,90,0.0,0.0,100,0.00,,,0.00,VWS V14.01,2013-08-12 22:01:00,
2013-08-12 18:06:00,83.0,83.0,29.65,East,90,0.0,0.0,100,0.00,,,0.00,VWS V14.01,2013-08-12 22:06:00,
2013-08-12 18:11:00,83.0,83.0,29.65,East,90,0.0,0.0,100,0.00,,,0.00,VWS V14.01,2013-08-12 22:11:00,
2013-08-12 18:16:00,83.0,83.0,29.65,East,90,0.0,0.0,100,0.00,,,0.00,VWS V14.01,2013-08-12 22:16:00,
2013-08-12 18:20:00,82.5,82.5,29.65,East,90,0.0,0.0,100,0.00,,,0.00,VWS V14.01,2013-08-12 22:20:00,
2013-08-12 18:21:00,82.3,82.3,29.65,East,90,0.0,0.0,100,0.00,,,0.00,VWS V14.01,2013-08-12 22:21:00,
2013-08-12 18:26:00,81.8,81.8,29.65,East,90,0.0,0.0,100,0.00,,,0.00,VWS V14.01,2013-08-12 22:26:00,
2013-08-12 18:30:00,81.6,81.6,29.65,East,90,0.0,0.0,100,0.00,,,0.00,VWS V14.01,2013-08-12 22:30:00,
2013-08-12 18:31:00,81.6,81.6,29.65,East,90,0.0,0.0,100,0.00,,,0.00,VWS V14.01,2013-08-12 22:31:00,
2013-08-12 18:36:00,81.4,81.4,29.65,East,90,0.0,0.0,100,0.00,,,0.00,VWS V14.01,2013-08-12 22:36:00,
2013-08-12 18:40:00,81.2,81.2,29.65,East,90,0.0,0.0,100,0.00,,,0.00,VWS V14.01,2013-08-12 22:40:00,
2013-08-12 18:41:00,81.0,81.1,29.65,East,90,4.0,4.0,100,0.00,,,0.00,VWS V14.01,2013-08-12 22:41:00,
2013-08-12 18:46:00,80.7,80.7,29.65,ENE,72,3.1,6.3,100,0.00,,,0.00,VWS V14.01,2013-08-12 22:46:00,
2013-08-12 18:50:00,80.3,80.3,29.65,East,88,4.0,6.3,100,0.00,,,0.00,VWS V14.01,2013-08-12 22:50:00,
2013-08-12 18:51:00,80.3,80.3,29.65,ENE,71,3.1,6.7,100,0.00,,,0.00,VWS V14.01,2013-08-12 22:51:00,
2013-08-12 18:56:00,80.1,80.2,29.65,ENE,73,2.2,6.7,100,0.00,,,0.00,VWS V14.01,2013-08-12 22:56:00,
2013-08-12 19:01:00,80.0,80.0,29.65,East,87,0.0,0.0,100,0.00,,,0.00,VWS V14.01,2013-08-12 23:01:00,
2013-08-12 19:06:00,80.0,80.0,29.65,East,87,0.0,4.0,100,0.00,,,0.00,VWS V14.01,2013-08-12 23:06:00,
2013-08-12 19:10:00,79.8,79.8,29.65,East,79,2.7,4.0,100,0.00,,,0.00,VWS V14.01,2013-08-12 23:10:00,
2013-08-12 19:11:00,79.8,79.8,29.65,East,79,2.7,3.1,100,0.00,,,0.00,VWS V14.01,2013-08-12 23:11:00,
2013-08-12 19:16:00,79.4,79.4,29.65,ENE,69,4.0,5.8,100,0.00,,,0.00,VWS V14.01,2013-08-12 23:16:00,
2013-08-12 19:20:00,79.2,79.2,29.65,ENE,60,2.2,5.8,100,0.00,,,0.00,VWS V14.01,2013-08-12 23:20:00,
2013-08-12 19:21:00,79.1,79.1,29.62,ENE,60,0.0,3.1,100,0.00,,,0.00,VWS V14.01,2013-08-12 23:21:00,
2013-08-12 19:26:00,79.1,79.1,29.62,ENE,60,0.0,3.1,100,0.00,,,0.00,VWS V14.01,2013-08-12 23:26:00,
2013-08-12 19:30:00,79.1,79.1,29.62,ENE,60,0.0,3.1,100,0.00,,,0.00,VWS V14.01,2013-08-12 23:30:00,
2013-08-12 19:36:00,79.1,79.1,29.62,ENE,60,0.0,0.0,100,0.00,,,0.00,VWS V14.01,2013-08-12 23:36:00,
2013-08-12 19:40:00,79.1,79.1,29.62,ENE,60,0.0,0.0,100,0.00,,,0.00,VWS V14.01,2013-08-12 23:40:00,
2013-08-12 19:41:00,79.1,79.1,29.62,ENE,60,0.0,0.0,100,0.00,,,0.00,VWS V14.01,2013-08-12 23:41:00,
2013-08-12 19:46:00,78.9,78.9,29.62,ENE,60,0.0,3.1,100,0.00,,,0.00,VWS V14.01,2013-08-12 23:46:00,
2013-08-12 19:50:00,78.7,78.7,29.62,ENE,60,2.7,3.1,100,0.00,,,0.00,VWS V14.01,2013-08-12 23:50:00,
2013-08-12 19:51:00,78.7,78.7,29.62,ENE,60,0.0,2.7,100,0.00,,,0.00,VWS V14.01,2013-08-12 23:51:00,
2013-08-12 19:56:00,78.5,78.5,29.62,ENE,60,3.1,3.6,100,0.00,,,0.00,VWS V14.01,2013-08-12 23:56:00,
2013-08-12 20:00:00,78.3,78.3,29.62,ENE,60,0.0,3.6,100,0.00,,,0.00,VWS V14.01,2013-08-13 00:00:00,
2013-08-12 20:01:00,78.2,78.2,29.62,ENE,60,0.0,0.0,100,0.00,,,0.00,VWS V14.01,2013-08-13 00:01:00,
2013-08-12 20:06:00,78.0,78.0,29.62,ENE,60,2.7,3.1,100,0.00,,,0.00,VWS V14.01,2013-08-13 00:06:00,
2013-08-12 20:10:00,77.6,77.6,29.62,ENE,60,2.7,3.1,100,0.00,,,0.00,VWS V14.01,2013-08-13 00:10:00,
2013-08-12 20:12:00,77.6,77.6,29.62,ENE,60,0.0,2.7,100,0.00,,,0.00,VWS V14.01,2013-08-13 00:12:00,
2013-08-12 20:17:00,77.3,77.3,29.62,ENE,60,0.0,2.7,100,0.00,,,0.00,VWS V14.01,2013-08-13 00:17:00,
2013-08-12 20:20:00,77.1,77.1,29.62,ENE,60,0.0,2.7,100,0.00,,,0.00,VWS V14.01,2013-08-13 00:20:00,
2013-08-12 20:22:00,77.1,77.1,29.62,ENE,60,0.0,0.0,100,0.00,,,0.00,VWS V14.01,2013-08-13 00:22:00,
2013-08-12 20:27:00,76.9,76.9,29.62,ENE,60,0.0,0.0,100,0.00,,,0.00,VWS V14.01,2013-08-13 00:27:00,
2013-08-12 20:30:00,76.7,76.7,29.62,ENE,60,2.7,2.7,100,0.00,,,0.00,VWS V14.01,2013-08-13 00:30:00,
2013-08-12 20:32:00,76.5,76.6,29.62,ENE,60,2.7,3.1,100,0.00,,,0.00,VWS V14.01,2013-08-13 00:32:00,
2013-08-12 20:37:00,76.4,76.4,29.62,ENE,60,0.0,3.1,100,0.00,,,0.00,VWS V14.01,2013-08-13 00:37:00,
2013-08-12 20:40:00,76.2,76.2,29.62,ENE,60,0.0,3.1,100,0.00,,,0.00,VWS V14.01,2013-08-13 00:40:00,
2013-08-12 20:47:00,75.8,75.8,29.62,ENE,60,0.0,0.0,100,0.00,,,0.00,VWS V14.01,2013-08-13 00:47:00,
2013-08-12 20:50:00,75.8,75.8,29.62,ENE,60,0.0,0.0,100,0.00,,,0.00,VWS V14.01,2013-08-13 00:50:00,
2013-08-12 20:52:00,75.6,75.7,29.62,ENE,60,0.0,0.0,100,0.00,,,0.00,VWS V14.01,2013-08-13 00:52:00,
2013-08-12 20:57:00,75.6,75.7,29.62,ENE,60,0.0,0.0,100,0.00,,,0.00,VWS V14.01,2013-08-13 00:57:00,
2013-08-12 21:00:00,75.5,75.5,29.62,ENE,60,0.0,0.0,100,0.00,,,0.00,VWS V14.01,2013-08-13 01:00:00,
2013-08-12 21:07:00,75.3,75.3,29.62,ENE,60,0.0,0.0,100,0.00,,,0.00,VWS V14.01,2013-08-13 01:07:00,
2013-08-12 21:10:00,75.3,75.3,29.62,ENE,60,0.0,0.0,100,0.00,,,0.00,VWS V14.01,2013-08-13 01:10:00,
2013-08-12 21:17:00,75.1,75.1,29.62,NNE,29,2.7,3.6,100,0.00,,,0.00,VWS V14.01,2013-08-13 01:17:00,
2013-08-12 21:20:00,74.9,74.9,29.62,NNE,29,0.0,3.6,100,0.00,,,0.00,VWS V14.01,2013-08-13 01:20:00,
2013-08-12 21:27:00,74.7,74.8,29.62,NE,54,0.0,2.7,100,0.00,,,0.00,VWS V14.01,2013-08-13 01:27:00,
2013-08-12 21:30:00,74.7,74.8,29.62,NE,54,0.0,2.7,100,0.00,,,0.00,VWS V14.01,2013-08-13 01:30:00,
2013-08-12 21:32:00,74.7,74.8,29.62,NE,54,0.0,0.0,100,0.00,,,0.00,VWS V14.01,2013-08-13 01:32:00,
2013-08-12 21:37:00,74.7,74.8,29.62,NE,54,0.0,0.0,100,0.00,,,0.00,VWS V14.01,2013-08-13 01:37:00,
2013-08-12 21:42:00,74.7,74.8,29.62,NE,54,0.0,0.0,100,0.00,,,0.00,VWS V14.01,2013-08-13 01:42:00,
2013-08-12 21:47:00,74.7,74.8,29.62,NE,54,0.0,0.0,100,0.00,,,0.00,VWS V14.01,2013-08-13 01:47:00,
2013-08-12 21:50:00,74.7,74.8,29.62,NE,54,0.0,0.0,100,0.00,,,0.00,VWS V14.01,2013-08-13 01:50:00,
2013-08-12 21:52:00,74.7,74.8,29.62,NE,54,0.0,0.0,100,0.00,,,0.00,VWS V14.01,2013-08-13 01:52:00,
2013-08-12 21:57:00,74.6,74.6,29.62,NE,54,0.0,0.0,100,0.00,,,0.00,VWS V14.01,2013-08-13 01:57:00,
2013-08-12 22:00:00,74.4,74.4,29.62,NE,54,0.0,0.0,100,0.00,,,0.00,VWS V14.01,2013-08-13 02:00:00,
2013-08-12 22:02:00,74.4,74.4,29.62,NE,54,0.0,0.0,100,0.00,,,0.00,VWS V14.01,2013-08-13 02:02:00,
2013-08-12 22:07:00,74.4,74.4,29.62,NE,54,0.0,0.0,100,0.00,,,0.00,VWS V14.01,2013-08-13 02:07:00,
2013-08-12 22:10:00,74.4,74.4,29.62,NE,54,0.0,0.0,100,0.00,,,0.00,VWS V14.01,2013-08-13 02:10:00,
2013-08-12 22:12:00,74.4,74.4,29.62,NE,54,0.0,0.0,100,0.00,,,0.00,VWS V14.01,2013-08-13 02:12:00,
2013-08-12 22:17:00,74.4,74.4,29.62,NE,54,0.0,0.0,100,0.00,,,0.00,VWS V14.01,2013-08-13 02:17:00,
2013-08-12 22:20:00,74.4,74.4,29.62,NE,54,0.0,0.0,100,0.00,,,0.00,VWS V14.01,2013-08-13 02:20:00,
2013-08-12 22:27:00,74.2,74.2,29.62,NE,54,0.0,0.0,100,0.00,,,0.00,VWS V14.01,2013-08-13 02:27:00,
2013-08-12 22:30:00,74.0,74.0,29.62,NE,54,0.0,0.0,100,0.00,,,0.00,VWS V14.01,2013-08-13 02:30:00,
2013-08-12 22:32:00,74.0,74.0,29.62,NE,54,0.0,0.0,100,0.00,,,0.00,VWS V14.01,2013-08-13 02:32:00,
2013-08-12 22:37:00,74.0,74.0,29.62,NE,54,0.0,3.1,100,0.00,,,0.00,VWS V14.01,2013-08-13 02:37:00,
2013-08-12 22:42:00,74.0,74.0,29.62,NE,54,0.0,0.0,100,0.00,,,0.00,VWS V14.01,2013-08-13 02:42:00,
2013-08-12 22:47:00,74.0,74.0,29.62,NE,54,0.0,0.0,100,0.00,,,0.00,VWS V14.01,2013-08-13 02:47:00,
2013-08-12 22:50:00,74.0,74.0,29.62,NE,54,0.0,0.0,100,0.00,,,0.00,VWS V14.01,2013-08-13 02:50:00,
2013-08-12 22:52:00,74.0,74.0,29.62,NE,54,0.0,0.0,100,0.00,,,0.00,VWS V14.01,2013-08-13 02:52:00,
2013-08-12 22:57:00,73.8,73.8,29.62,NE,54,0.0,0.0,100,0.00,,,0.00,VWS V14.01,2013-08-13 02:57:00,
2013-08-12 23:02:00,73.8,73.8,29.62,NE,54,0.0,0.0,100,0.00,,,0.00,VWS V14.01,2013-08-13 03:02:00,
2013-08-12 23:07:00,73.7,73.7,29.62,NE,54,0.0,0.0,100,0.00,,,0.00,VWS V14.01,2013-08-13 03:07:00,
2013-08-12 23:10:00,73.5,73.5,29.62,NE,54,0.0,0.0,100,0.00,,,0.00,VWS V14.01,2013-08-13 03:10:00,
2013-08-12 23:12:00,73.5,73.5,29.62,NE,54,0.0,0.0,100,0.00,,,0.00,VWS V14.01,2013-08-13 03:12:00,
2013-08-12 23:17:00,73.3,73.3,29.62,NE,54,0.0,0.0,100,0.00,,,0.00,VWS V14.01,2013-08-13 03:17:00,
2013-08-12 23:22:00,73.3,73.3,29.62,NE,54,0.0,0.0,100,0.00,,,0.00,VWS V14.01,2013-08-13 03:22:00,
2013-08-12 23:27:00,73.1,73.1,29.62,NE,54,0.0,0.0,100,0.00,,,0.00,VWS V14.01,2013-08-13 03:27:00,
2013-08-12 23:32:00,72.9,72.9,29.59,NE,54,0.0,0.0,100,0.00,,,0.00,VWS V14.01,2013-08-13 03:32:00,
2013-08-12 23:37:00,72.8,72.8,29.62,NE,54,0.0,0.0,100,0.00,,,0.00,VWS V14.01,2013-08-13 03:37:00,
2013-08-12 23:40:00,72.8,72.8,29.62,NE,54,0.0,0.0,100,0.00,,,0.00,VWS V14.01,2013-08-13 03:40:00,
2013-08-12 23:42:00,72.8,72.8,29.62,NE,54,0.0,0.0,100,0.00,,,0.00,VWS V14.01,2013-08-13 03:42:00,
2013-08-12 23:47:00,72.6,72.6,29.62,NE,54,0.0,0.0,100,0.00,,,0.00,VWS V14.01,2013-08-13 03:47:00,
2013-08-12 23:57:00,72.8,72.8,29.62,NE,54,0.0,0.0,100,0.00,,,0.00,VWS V14.01,2013-08-13 03:57:00,